This demonstration page uses our WeatherBlox Daily Observations layout. Learn more.

Left ArrowRight Arrow

Hourly Observations for January 16, 2022

Temp ( °F °C ) Dew Point ( °F °C ) Humidity (%) Winds ( mph kmh ) Pressure ( in mb ) Visibility ( mi km ) Precip ( " mm )
12:53 am 00:53 Clear 26 -3.3 4 -15.6 38 38 N 3 6 30.26 1025 10 16 0.00 0.00
1:53 am 01:53 Clear 23 -5 2 -16.7 40 40 N 3 6 30.20 1023 10 16 0.00 0.00
2:53 am 02:53 Clear 22 -5.6 2 -16.7 42 42 Calm 30.22 1023 10 16 0.00 0.00
3:53 am 03:53 Clear 20 -6.7 2 -16.7 45 45 Calm 30.20 1023 10 16 0.00 0.00
4:53 am 04:53 Clear 19 -7.2 1 -17.2 45 45 N 3 6 30.15 1021 10 16 0.00 0.00
5:53 am 05:53 Clear 18 -7.8 1 -17.2 47 47 N 6 9 30.15 1021 10 16 0.00 0.00
6:53 am 06:53 Clear 17 -8.3 1 -17.2 49 49 N 5 7 30.16 1021 10 16 0.00 0.00
7:53 am 07:53 Sunny 17 -8.3 1 -17.2 49 49 Calm 30.17 1022 10 16 0.00 0.00
8:53 am 08:53 Sunny 24 -4.4 4 -15.6 42 42 Calm 30.17 1022 10 16 0.00 0.00
9:53 am 09:53 Sunny 35 1.7 7 -13.9 31 31 NNW 3 6 30.16 1021 10 16 0.00 0.00
10:53 am 10:53 Sunny 47 8.3 14 -10 26 26 WSW 10 17 30.13 1020 10 16 0.00 0.00
11:53 am 11:53 Sunny 53 11.7 16 -8.9 23 23 W 12 19 30.10 1019 10 16 0.00 0.00
12:53 pm 12:53 Sunny 60 15.6 15 -9.4 17 17 W 15 24 30.04 1017 10 16 0.00 0.00
1:53 pm 13:53 Sunny 64 17.8 13 -10.6 13 13 W 7 11 30.00 1016 10 16 0.00 0.00
2:53 pm 14:53 Sunny 68 20 10 -12.2 10 10 W 12 19 29.97 1015 10 16 0.00 0.00
3:53 pm 15:53 Sunny 69 20.6 8 -13.3 9 9 WSW 12 19 29.96 1015 10 16 0.00 0.00
4:53 pm 16:53 Sunny 69 20.6 5 -15 8 8 W 8 13 29.96 1014 10 16 0.00 0.00
5:53 pm 17:53 Sunny 65 18.3 7 -13.9 10 10 W 5 7 29.97 1015 10 16 0.00 0.00
6:53 pm 18:53 Clear 54 12.2 6 -14.4 14 14 W 9 15 30.00 1016 10 16 0.00 0.00
7:53 pm 19:53 Clear 53 11.7 7 -13.9 15 15 NW 3 6 30.03 1017 10 16 0.00 0.00
8:53 pm 20:53 Clear 48 8.9 8 -13.3 19 19 WNW 9 15 30.04 1017 10 16 0.00 0.00
9:53 pm 21:53 Clear 43 6.1 5 -15 21 21 NNW 5 7 30.04 1017 10 16 0.00 0.00
10:53 pm 22:53 Clear 39 3.9 4 -15.6 23 23 Calm 30.05 1018 10 16 0.00 0.00
11:53 pm 23:53 Clear 35 1.7 4 -15.6 27 27 NNW 9 15 30.04 1017 10 16 0.00 0.00

Powered by AerisWeather